Regional Weather Roundup
Issued by NWS Upton, NY

Current Version | Previous Version | Text Only | Print | Product List | Glossary Off
Versions: 1 2 3 4 5 6 7 8 9 10 11 12 13 14 15 16 17 18 19 20 21 22 23 24 25 26 27 28 29 30 31 32 33 34 35 36 37 38 39 40 41 42 43 44 45 46 47 48 49
711 ASUS41 KOKX 132304 RWROKX REGIONAL WEATHER ROUNDUP NATIONAL WEATHER SERVICE NEW YORK NY 600 PM EST SAT FEB 13 2016 NOTE: "FAIR" INDICATES FEW OR NO CLOUDS BELOW 12,000 FEET WITH NO SIGNIFICANT WEATHER AND/OR OBSTRUCTIONS TO VISIBILITY. NYZ071-072-176-178-NJZ106-104-140000- NEW YORK CITY METRO AREA CITY SKY/WX TMP DP RH WIND PRES REMARKS CENTRAL PARK PTCLDY 10 -16 29 NW17G36 30.24R WCI -8 LAGUARDIA APRT PTCLDY 13 -8 39 NW30G45 30.23R WCI -8 KENNEDY INTL PTCLDY 12 -17 26 NW32G38 30.24R WCI -10 NEWARK/LIBERTY PTCLDY 11 -16 28 NW26G39 30.25R WCI -10 BRNX BOT. GARD N/A 10 -15 31 NW16 30.25R WCI -7 TETERBORO PTCLDY 10 -17 28 NW20G32 30.25R WCI -9 $$ NYZ177-179-078>081-140000- LONG ISLAND NEW YORK CITY SKY/WX TMP DP RH WIND PRES REMARKS FARMINGDALE PTCLDY 11 -15 30 NW16G35 30.20R WCI -6 ISLIP PTCLDY 10 -13 34 NW29G38 30.17R WCI -12 SHIRLEY CLEAR 9 -12 38 NW23G37 30.19R WCI -11 RIVERHEAD N/A 12 -22 20 W16 30.12R WCI -4 WESTHAMPTON PTCLDY 9 -10 42 NW22G33 30.15R WCI -11 EAST HAMPTON CLOUDY 13 -7 40 NW16G25 30.09R WCI -3 MONTAUK POINT N/A 13 -4 46 NW21G38 30.10R WCI -5 $$ NYZ052-065-067-140000- HUDSON VALLEY CITY SKY/WX TMP DP RH WIND PRES REMARKS WHITE PLAINS PTCLDY 6 -13 41 NW33G44 30.17R WCI -19 NEWBURGH NOT AVBL MONTGOMERY CLEAR 3 -18 37 NW21G35 30.22R WCI -18 POUGHKEEPSIE MOCLDY 6 -20 29 W16G26 30.25R WCI -12 ALBANY PTCLDY -1 -20 40 NW14G28 30.24R WCI -20 $$ NJZ001-105-106-008-010-013-015-019>022-104-140000- NEW JERSEY CITY SKY/WX TMP DP RH WIND PRES REMARKS NEWARK/LIBERTY PTCLDY 11 -16 28 NW26G39 30.25R WCI -10 TETERBORO PTCLDY 10 -17 28 NW20G32 30.25R WCI -9 CALDWELL PTCLDY 9 -17 30 NW17G24 30.25R WCI -9 MORRISTOWN PTCLDY 9 -13 37 NW12G21 30.25R WCI -6 SOMERVILLE MOCLDY 11 -11 36 NW15G23 30.24R WCI -5 SUSSEX CLEAR 5 -16 37 MISG 30.22R ANDOVER N/A 6 -16 35 VRB6G20 30.21R WCI -4 TRENTON CLOUDY 13 -12 32 NW18G28 30.25R WCI -4 MILLVILLE MOCLDY 16 -5 39 NW18G29 30.30R WCI 0 ATLANTIC CITY PTCLDY 16 -11 29 NW22G38 30.26R WCI -2 WRIGHTSTOWN CLEAR 13 -13 30 NW20G31 30.23R WCI -4 TOMS RIVER PTCLDY 14 -11 31 NW18G31 30.24R WCI -3 BELMAR PTCLDY 14 N/A N/A NW17G26 30.21R WCI -3 $$ PAZ047>061-062-071-140000- EASTERN PENNSYLVANIA CITY SKY/WX TMP DP RH WIND PRES REMARKS PHILADELPHIA PTCLDY 16 -13 26 NW25G31 30.31R WCI -3 ALLENTOWN CLOUDY 11 -8 42 NW15G23 30.26R WCI -5 SCRANTON CLOUDY 3 -11 52 NW15G25 30.22R WCI -16 $$ CTZ002-004>006-009-010-012-RIZ004-006-007-MAZ004-011-015-140000- SOUTHERN NEW ENGLAND IN CT CITY SKY/WX TMP DP RH WIND PRES REMARKS BRADLEY INTL PTCLDY 2 -18 38 NW15G26 30.17R WCI -17 HARTFORD PTCLDY 6 -16 35 NW16G26 30.19R WCI -12 DANBURY CLEAR 4 -20 32 W16G26 30.18R WCI -15 WTRBRY/OXFORD PTCLDY 3 -22 30 NW12G25 30.10R WCI -13 BRIDGEPORT PTCLDY 8 -15 34 NW23G32 30.19R WCI -13 MERIDEN CLEAR 6 -15 37 NW20G30 30.17R WCI -14 NEW HAVEN PTCLDY 9 -10 42 NW14G30 30.17R WCI -7 CHESTER FAIR 7 -15 36 N17G28 30.11R WCI -12 GROTON PTCLDY 7 -10 46 NW23G33 30.13R WCI -14 WILLIMANTIC CLEAR 4 -18 35 NW18G33 30.14R WCI -16 IN RI CITY SKY/WX TMP DP RH WIND PRES REMARKS PROVIDENCE PTCLDY 6 -15 37 W21G31 30.07R WCI -14 BLOCK ISLAND PTCLDY 10 -6 48 NW23G29 30.05R WCI -10 WESTERLY CLEAR 8 -15 34 NW16G25 30.11R WCI -10 IN MA CITY SKY/WX TMP DP RH WIND PRES REMARKS BOSTON PTCLDY 9 -12 38 W20G30 30.02R WCI -10 WORCESTER CLEAR -1 -19 42 W25G38 29.97R WCI -25 WESTFIELD CLEAR 0 -19 40 NW18G28 30.16R WCI -21 PROVINCETOWN MOCLDY 15 1 53 W29G36 29.95R WCI -5 NANTUCKET CLEAR 16 -4 41 NW24G33 29.96R WCI -2 $$ ANZ330-335-338-340-345-350-353-355-140000- COASTAL MARINE OBSERVATIONS STATION/POSITION TIME SKY/WX TEMP WIND PRES VSBY WAVE AIR SEA DIR/SP/G HT/PER (UTC) (F) (DEG/KT/KT) (MB) (MI) (FT/S) NY HARB ENTRANCE 2150 18 42 310/ 33/ 41 1020.6 6/ 6 4S FIRE IS NOT AVBL 20S FIRE ISLAND 2150 18 41 310/ 33/ 43 1019.4 9/ 7 GREAT SOUTH BAY NOT AVBL 23SW MTP 2250 17 44 300/ 29/ 39 1018.2 9/ 7 HUDSON CANYON 2150 23 48 1018.1 12/ 8 KINGS POINT 2200 13 35 1022.0 EXECUTION ROCKS NOT AVBL CENTRAL LI SOUND 2200 16 290/ 25/ 33 N/A 6/ 6 EASTERN LI SOUND 2200 17 40 320/ 25/ 35 N/A ROBBINS REEF 2200 13 1022.0 $$ >>>>>>>>>>>>>>>>>>>>>>>>>>>> KEY <<<<<<<<<<<<<<<<<<<<<<<<<<< > < > SKY/WX - SKY CONDITION/PRESENT WEATHER < > TMP - TEMPERATURE IN FAHRENHEIT < > DP - DEWPOINT IN FAHRENHEIT < > RH - RELATIVE HUMIDITY IN PERCENT < > WIND - DIRECTION AND SPEED IN MPH < > PRES - MEAN SEA LEVEL PRESSURE IN INCHES OF HG < > WCI - WIND CHILL INDEX < > VSB - VISIBILITY IN MILES < > HX - HEAT INDEX < > TC - TEMPERATURE IN CELSIUS < > VRB - VARIABLE WIND DIRECTION < > < >>>>>>>>>>>>>>>>>>>>>>>>>>>> KEY <<<<<<<<<<<<<<<<<<<<<<<<<<<

USA.gov is the U.S. government's official web portal to all federal, state and local government web resources and services.